Regional Weather Roundup
Issued by NWS

Home | Current Version | Previous Version | Text Only | Print | Product List | Glossary On
Versions: 1 2 3 4 5 6 7 8 9 10 11 12 13 14 15 16 17 18 19 20 21 22 23 24 25 26 27 28 29 30 31 32 33 34 35 36 37 38 39 40 41 42 43 44 45 46 47 48 49 50
000
ASUS43 KMPX 252110
RWRMN
WEATHER ROUNDUP FOR MINNESOTA
NATIONAL WEATHER SERVICE TWIN CITIES/CHANHASSEN MN
400 PM CDT SAT MAR 25 2017


NOTE: "FAIR" INDICATES FEW OR NO CLOUDS BELOW 12,000 FEET WITH NO
SIGNIFICANT WEATHER AND/OR OBSTRUCTIONS TO VISIBILITY. N/A MEANS
CURRENT SKY AND/OR WEATHER CONDITIONS ARE NOT AVAILABLE.

MNZ060>063-068>070-252200-
   Twin Cities Metro

CITY           SKY/WX    TMP DP  RH WIND       PRES   REMARKS
TWIN CITIES    CLOUDY    42  32  67 NE16      30.08F
ST PAUL        CLOUDY    42  34  73 NE12      30.10F
CRYSTAL        CLOUDY    42  31  64 E10       30.08F
BLAINE         CLOUDY    45  36  70 E15       30.08F
LAKEVILLE      CLOUDY    39  36  87 E10       30.06F
EDEN PRAIRIE   CLOUDY    43  33  68 NE14      30.06F
SOUTH ST PAUL  CLOUDY    43  33  67 E13       30.07F
LAKE ELMO      CLOUDY    43  34  70 E13       30.09F
$$
MNZ001>005-007-008-013>017-022>024-027-028-252200-
   Northwest Minnesota

CITY           SKY/WX    TMP DP  RH WIND       PRES   REMARKS
BEMIDJI        SUNNY     43  30  60 E12G17    30.10F
HALLOCK        CLOUDY    37  34  87 S16       30.07F
ROSEAU         CLOUDY    45  32  61 S9        30.09F
WARROAD        CLOUDY    45  32  61 SE10      30.10F
THIEF RVR FALL MOSUNNY  N/A N/A N/A SE9       30.09F
CROOKSTON      CLOUDY    43  36  75 S12       30.09F
FOSSTON        CLOUDY    50  32  50 S6        30.08F
DETROIT LAKES  CLOUDY    46  32  57 S7        30.08S
MOORHEAD       MOSUNNY   37  32  81 S9        30.10F
PARK RAPIDS    SUNNY     46  28  49 SE10G16   30.08F
MAHNOMEN       FAIR      46  32  58 S3        30.07F
$$
MNZ006-009>011-018-025>026-252200-
   North Central Minnesota

CITY           SKY/WX    TMP DP  RH WIND       PRES   REMARKS
BAUDETTE       CLOUDY    45  29  53 S10       30.11F
FLAG ISLAND    CLOUDY    36  28  75 S7        30.11F
INTL FALLS     SUNNY     41  25  53 SE6       30.15F
WASKISH        MOSUNNY   46  28  49 SE9       30.12F
BIG FORK       MOSUNNY   41  28  60 E10       30.14F
LONGVILLE      SUNNY     43  28  56 E7        30.11F
GRAND RAPIDS   CLOUDY    37  27  67 SE10G17   30.16F
CRANE LAKE     SUNNY     41  25  52 S3        30.19F
ORR            SUNNY     39  23  52 E5        30.13F
COOK           SUNNY     39  27  60 SE10G17   30.16F
WALKER         FAIR      40  29  65 E8        30.11S
$$
MNZ012-019>021-037-252200-
   Northeast Minnesota

CITY           SKY/WX    TMP DP  RH WIND       PRES   REMARKS
DULUTH         CLOUDY    32  28  85 E21       30.16F WCI  20
ELY            SUNNY     37  27  65 SE13      30.18F
HIBBING        CLOUDY    36  28  73 E13       30.16F
EVELETH        CLOUDY    37  28  67 SE10G17   30.18S
DULUTH HARBOR  CLOUDY    34  30  86 NE26      30.20F WCI  21
TWO HARBORS    CLOUDY    34  28  80 E20G26    30.20F WCI  22
SILVER BAY     CLOUDY    30  27  86 NE16G24   30.22F WCI  19
GRAND MARAIS     N/A     32  25  75 E23G29    30.28  WCI  19
G MARAIS ARPRT CLOUDY    32  18  55 SE9       30.23F WCI  24
$$
MNZ029>031-032-039>041-046>048-054>057-064-252200-
   West Central Minnesota

CITY           SKY/WX    TMP DP  RH WIND       PRES   REMARKS
FERGUS FALLS   SUNNY     43  30  61 S5        30.12F
WHEATON        CLOUDY    39  32  75 E13       30.10F
MORRIS         CLOUDY    41  32  70 SE8       30.07F
ALEXANDRIA     CLOUDY    42  32  67 E12       30.08F
ELBOW LAKE     CLOUDY    44  32  64 SE7       30.08F
WADENA         SUNNY     45  30  57 E12       30.08S
GLENWOOD       PTSUNNY   39  32  75 E15       30.08F
APPLETON       CLOUDY    39  34  81 E7        30.08S
BENSON         CLOUDY    43  30  61 SE7       30.10S
ORTONVILLE     CLOUDY    37  32  81 SE6       30.08
MADISON        CLOUDY    43  37  81 E8        30.08S
WILLMAR        CLOUDY    41  36  81 E12       30.08F
$$
MNZ033>034-036-042>043-049>051-058-059-252200-
   Central Minnesota

CITY           SKY/WX    TMP DP  RH WIND       PRES   REMARKS
ST CLOUD       CLOUDY    41  33  73 NE10      30.09F
SAUK CENTRE    CLOUDY    40  32  73 NE10      30.08F
PAYNESVILLE      N/A     40  32  75 E10       30.08F
AITKIN         PTSUNNY   45  28  53 E9G18     30.11F
PINE RIVER     SUNNY     43  30  61 E12       30.14F
BRAINERD       SUNNY     44  29  55 E6        30.10F
STAPLES        SUNNY     45  28  53 E7        30.09F
LONG PRAIRIE   FAIR      41  32  70 NE9       30.08F
LITTLE FALLS   SUNNY     45  32  61 E5        30.09F
LITCHFIELD     CLOUDY    43  36  75 NE10      30.07F
BUFFALO        CLOUDY    41  33  71 NE12      30.09S
MAPLE LAKE     CLOUDY    42  35  75 E12G17    30.09F
HUTCHINSON     CLOUDY    42  36  80 NE10      30.07S
$$
MNZ037-044-045-052-053-252200-
   East Central Minnesota

CITY           SKY/WX    TMP DP  RH WIND       PRES   REMARKS
PRINCETON      CLOUDY    45  34  65 E10       30.10F
MORA           SUNNY     45  32  61 E8        30.12F
CAMBRIDGE      CLOUDY    45  32  61 E7        30.09S
RUSH CITY      SUNNY     46  32  58 E8        30.11S
MOOSE LAKE     CLOUDY    41  30  65 NE10G20   30.12F
CLOQUET        CLOUDY    34  28  80 E15G22    30.16F WCI  24
MCGREGOR       CLOUDY    37  32  81 E14       30.14F
$$
MNZ071>073-080-081-089-090-097-098-252200-
   Southwest Minnesota

CITY           SKY/WX    TMP DP  RH WIND       PRES   REMARKS
MONTEVIDEO     CLOUDY    39  36  87 SE10      30.09S
GRANITE FALLS  CLOUDY    43  36  76 NE10      30.07F
CANBY          CLOUDY    42  37  83 CALM      30.06F
MARSHALL       CLOUDY    42  36  79 E13       30.04F
REDWOOD FALLS  CLOUDY    42  35  76 NE8       30.05F
OLIVIA         CLOUDY    41  34  75 NE13G18   30.05F
PIPESTONE      CLOUDY    39  34  81 E12       29.99F
WINDOM         CLOUDY    39  37  93 NE13      30.02S
WORTHINGTON    CLOUDY    38  36  92 NE17      30.00F FOG
JACKSON        CLOUDY    37  36  93 E17       30.00F FOG
TRACY          CLOUDY    42  38  87 E12       30.03F
SLAYTON        CLOUDY    38  37  96 NE14G20   30.02F FOG
$$
MNZ065>067-074>077-082>085-091>093-252200-
   South Central Minnesota

CITY           SKY/WX    TMP DP  RH WIND       PRES   REMARKS
MANKATO        CLOUDY    40  34  79 E16       30.04F
NEW ULM        CLOUDY    41  34  75 E12G17    30.04F
ST JAMES       CLOUDY    39  36  87 NE14      30.04F
FAIRMONT       CLOUDY    38  36  92 NE13      30.02F
GLENCOE        CLOUDY    42  37  81 NE9       30.06F
FARIBAULT      CLOUDY    39  36  87 NE12G18   30.05F
OWATONNA       CLOUDY    39  34  81 NE13G18   30.04S
WASECA         CLOUDY    39  34  81 NE14G20   30.04F
ALBERT LEA     CLOUDY    37  36  93 NE13G21   30.01S
$$
MNZ078>079-086>088-094>096-252200-
   Southeast Minnesota

CITY           SKY/WX    TMP DP  RH WIND       PRES   REMARKS
ROCHESTER      CLOUDY    38  35  89 NE17      30.02F
RED WING       CLOUDY    43  32  65 E13       30.07F
STANTON        CLOUDY    41  35  77 E14       30.05F
DODGE CENTER   CLOUDY    37  36  93 NE18      30.02F
WINONA         CLOUDY    41  34  75 E8        30.06F
AUSTIN         RAIN      37  36  93 NE15G21   30.00F
PRESTON        CLOUDY    37  35  93 NE12      30.01F FOG
$$
ABBREVIATIONS USED IN REMARKS
   TC - TEMPERATURES IN CELSIUS
  WCI - WIND CHILL INDEX
   HX - HEAT INDEX
  VSB - VISIBILITY
$$



USA.gov is the U.S. government's official web portal to all federal, state and local government web resources and services.